Precipitable_Water
0.25 0.24 0.23 0.22 0.21 0.20 0.19 0.19 0.19 0.18 0.18 0.18 0.17 0.17 0.16 0.16 0.15 0.15 0.15 0.14 0.13 0.13 0.13 0.12 0.12 0.12 0.12 0.13 0.13 0.13 0.13 0.14 0.14 0.15 0.15 0.14 0.14 0.14 0.14 0.15 0.14 0.14 0.14 0.14 0.14 0.13 0.13 0.13 0.13 0.12 0.12 0.11 0.11 0.11 0.11 0.12 0.12 0.13 0.13 0.14 0.14 0.14 0.15 0.16 0.16 0.17 0.20 0.23 0.23 0.23 0.25 0.27 0.29 0.31 0.32 0.34 0.36 0.39 0.41 0.43 0.46 0.48 0.52 0.54 0.56
0.25 0.24 0.23 0.22 0.21 0.20 0.19 0.19 0.18 0.18 0.18 0.18 0.17 0.17 0.16 0.16 0.15 0.15 0.15 0.15 0.14 0.13 0.13 0.13 0.13 0.13 0.12 0.13 0.13 0.13 0.14 0.14 0.15 0.15 0.15 0.15 0.14 0.15 0.15 0.15 0.15 0.14 0.14 0.14 0.14 0.14 0.14 0.14 0.13 0.13 0.12 0.11 0.11 0.11 0.11 0.11 0.11 0.12 0.12 0.13 0.13 0.14 0.15 0.14 0.15 0.17 0.17 0.21 0.21 0.22 0.23 0.26 0.25 0.29 0.29 0.31 0.33 0.36 0.36 0.38 0.40 0.44 0.47 0.51 0.52
0.25 0.25 0.24 0.23 0.21 0.20 0.19 0.19 0.18 0.18 0.18 0.18 0.17 0.17 0.17 0.16 0.15 0.15 0.15 0.15 0.15 0.14 0.13 0.13 0.13 0.13 0.13 0.13 0.13 0.13 0.14 0.14 0.15 0.15 0.15 0.15 0.15 0.15 0.15 0.15 0.15 0.15 0.14 0.14 0.14 0.14 0.14 0.14 0.14 0.13 0.13 0.11 0.11 0.11 0.11 0.11 0.11 0.11 0.12 0.12 0.12 0.13 0.14 0.15 0.14 0.15 0.17 0.18 0.21 0.21 0.21 0.23 0.23 0.25 0.27 0.29 0.31 0.33 0.34 0.35 0.37 0.39 0.42 0.45 0.48
0.25 0.25 0.24 0.23 0.22 0.20 0.19 0.19 0.18 0.18 0.18 0.18 0.17 0.17 0.17 0.16 0.16 0.15 0.15 0.15 0.15 0.15 0.15 0.14 0.13 0.13 0.13 0.13 0.13 0.13 0.13 0.14 0.15 0.15 0.15 0.15 0.15 0.15 0.15 0.15 0.15 0.15 0.15 0.15 0.15 0.14 0.14 0.14 0.14 0.14 0.13 0.12 0.11 0.11 0.11 0.11 0.11 0.11 0.11 0.12 0.13 0.13 0.14 0.14 0.14 0.14 0.16 0.17 0.20 0.20 0.21 0.21 0.22 0.24 0.25 0.27 0.27 0.29 0.31 0.33 0.35 0.35 0.36 0.40 0.44
0.25 0.25 0.24 0.23 0.22 0.20 0.19 0.18 0.18 0.18 0.18 0.18 0.17 0.17 0.17 0.17 0.16 0.15 0.15 0.14 0.14 0.15 0.15 0.15 0.15 0.14 0.14 0.13 0.13 0.13 0.14 0.14 0.15 0.15 0.15 0.15 0.15 0.15 0.15 0.15 0.15 0.15 0.15 0.15 0.15 0.15 0.14 0.14 0.15 0.15 0.14 0.13 0.12 0.12 0.12 0.12 0.12 0.11 0.11 0.12 0.12 0.13 0.14 0.14 0.14 0.14 0.14 0.15 0.17 0.20 0.21 0.21 0.22 0.22 0.23 0.22 0.24 0.26 0.28 0.29 0.30 0.32 0.34 0.36 0.39
0.24 0.25 0.24 0.23 0.22 0.21 0.20 0.19 0.18 0.18 0.18 0.17 0.17 0.17 0.17 0.17 0.16 0.16 0.15 0.14 0.14 0.14 0.15 0.15 0.15 0.15 0.15 0.14 0.14 0.14 0.14 0.14 0.15 0.15 0.15 0.16 0.16 0.16 0.16 0.16 0.15 0.15 0.16 0.16 0.16 0.15 0.15 0.15 0.15 0.16 0.15 0.14 0.13 0.12 0.12 0.12 0.12 0.12 0.12 0.12 0.12 0.12 0.13 0.13 0.14 0.14 0.14 0.14 0.16 0.17 0.19 0.19 0.20 0.20 0.21 0.20 0.20 0.21 0.23 0.25 0.26 0.28 0.29 0.31 0.34
0.24 0.25 0.24 0.24 0.23 0.22 0.21 0.19 0.18 0.18 0.18 0.18 0.17 0.17 0.17 0.17 0.17 0.16 0.15 0.15 0.14 0.14 0.15 0.15 0.15 0.15 0.15 0.15 0.15 0.15 0.14 0.15 0.15 0.16 0.16 0.16 0.16 0.16 0.16 0.16 0.16 0.16 0.16 0.17 0.17 0.16 0.16 0.15 0.15 0.16 0.16 0.15 0.14 0.13 0.13 0.12 0.12 0.12 0.12 0.12 0.12 0.12 0.12 0.12 0.13 0.13 0.14 0.14 0.15 0.16 0.17 0.19 0.19 0.18 0.20 0.21 0.20 0.20 0.20 0.21 0.23 0.25 0.26 0.27 0.28
0.23 0.24 0.24 0.24 0.23 0.22 0.21 0.20 0.19 0.18 0.18 0.18 0.17 0.17 0.17 0.17 0.17 0.16 0.16 0.15 0.14 0.14 0.14 0.15 0.15 0.15 0.15 0.15 0.15 0.15 0.15 0.15 0.16 0.16 0.16 0.16 0.16 0.16 0.16 0.16 0.15 0.16 0.16 0.17 0.17 0.17 0.17 0.16 0.16 0.16 0.17 0.17 0.16 0.14 0.14 0.13 0.12 0.11 0.12 0.12 0.12 0.12 0.12 0.12 0.13 0.13 0.13 0.13 0.13 0.13 0.15 0.16 0.17 0.18 0.19 0.20 0.19 0.19 0.21 0.20 0.20 0.22 0.23 0.25 0.26
0.22 0.23 0.24 0.23 0.23 0.23 0.22 0.20 0.19 0.18 0.18 0.18 0.17 0.17 0.17 0.17 0.16 0.16 0.16 0.15 0.15 0.15 0.15 0.14 0.14 0.15 0.15 0.15 0.15 0.15 0.15 0.16 0.16 0.17 0.17 0.17 0.17 0.17 0.16 0.16 0.16 0.16 0.16 0.17 0.18 0.18 0.18 0.17 0.17 0.17 0.17 0.18 0.18 0.16 0.15 0.14 0.13 0.12 0.11 0.11 0.11 0.11 0.12 0.12 0.12 0.13 0.13 0.13 0.12 0.13 0.13 0.14 0.15 0.16 0.16 0.17 0.17 0.17 0.18 0.20 0.20 0.22 0.23 0.23 0.24
0.22 0.22 0.23 0.23 0.24 0.23 0.22 0.21 0.19 0.18 0.18 0.18 0.17 0.17 0.17 0.17 0.16 0.16 0.15 0.15 0.15 0.15 0.14 0.14 0.14 0.14 0.14 0.15 0.15 0.15 0.15 0.16 0.17 0.17 0.18 0.18 0.18 0.18 0.17 0.16 0.16 0.16 0.17 0.17 0.17 0.18 0.18 0.18 0.18 0.18 0.18 0.18 0.18 0.18 0.17 0.16 0.15 0.14 0.13 0.12 0.11 0.11 0.12 0.12 0.12 0.12 0.12 0.12 0.12 0.12 0.12 0.12 0.13 0.15 0.15 0.16 0.18 0.19 0.19 0.19 0.17 0.18 0.19 0.20 0.22
0.22 0.23 0.24 0.24 0.24 0.23 0.22 0.21 0.20 0.19 0.18 0.18 0.18 0.17 0.17 0.17 0.16 0.16 0.15 0.15 0.15 0.14 0.14 0.14 0.14 0.14 0.14 0.15 0.15 0.15 0.16 0.16 0.17 0.18 0.19 0.19 0.19 0.18 0.18 0.18 0.18 0.17 0.17 0.16 0.16 0.18 0.19 0.19 0.19 0.18 0.18 0.18 0.19 0.19 0.19 0.18 0.16 0.15 0.15 0.14 0.13 0.12 0.11 0.11 0.12 0.12 0.12 0.12 0.12 0.12 0.12 0.12 0.13 0.14 0.14 0.16 0.17 0.17 0.16 0.16 0.16 0.17 0.18 0.18 0.17
0.22 0.23 0.24 0.24 0.24 0.23 0.22 0.21 0.20 0.19 0.18 0.18 0.18 0.17 0.17 0.16 0.16 0.16 0.15 0.15 0.14 0.14 0.14 0.14 0.14 0.14 0.14 0.15 0.15 0.15 0.16 0.16 0.17 0.18 0.19 0.19 0.19 0.19 0.19 0.19 0.19 0.19 0.18 0.18 0.18 0.18 0.19 0.19 0.19 0.19 0.18 0.18 0.18 0.19 0.19 0.19 0.19 0.17 0.16 0.15 0.15 0.14 0.14 0.12 0.11 0.11 0.11 0.11 0.11 0.12 0.12 0.12 0.12 0.13 0.13 0.15 0.15 0.16 0.16 0.16 0.16 0.16 0.16 0.16 0.17
0.22 0.23 0.24 0.24 0.24 0.23 0.22 0.21 0.20 0.19 0.18 0.18 0.18 0.18 0.17 0.16 0.16 0.15 0.15 0.14 0.14 0.14 0.13 0.13 0.14 0.14 0.14 0.14 0.15 0.15 0.16 0.16 0.17 0.18 0.19 0.20 0.20 0.20 0.20 0.20 0.20 0.19 0.19 0.19 0.19 0.19 0.20 0.20 0.19 0.19 0.18 0.18 0.18 0.18 0.18 0.18 0.19 0.19 0.18 0.17 0.16 0.15 0.15 0.15 0.14 0.13 0.12 0.11 0.10 0.10 0.11 0.11 0.11 0.11 0.13 0.13 0.14 0.14 0.15 0.15 0.15 0.16 0.16 0.16 0.16
0.22 0.23 0.24 0.25 0.25 0.24 0.23 0.21 0.20 0.19 0.19 0.18 0.18 0.17 0.17 0.16 0.16 0.15 0.15 0.14 0.14 0.13 0.13 0.13 0.14 0.14 0.14 0.14 0.15 0.15 0.16 0.16 0.17 0.18 0.19 0.20 0.20 0.20 0.20 0.20 0.21 0.21 0.21 0.21 0.21 0.20 0.20 0.20 0.20 0.19 0.19 0.18 0.19 0.19 0.19 0.19 0.19 0.18 0.18 0.18 0.17 0.16 0.16 0.15 0.15 0.15 0.15 0.13 0.12 0.11 0.12 0.12 0.11 0.12 0.13 0.13 0.13 0.12 0.13 0.13 0.14 0.14 0.15 0.15 0.15
0.22 0.23 0.24 0.24 0.25 0.24 0.23 0.21 0.20 0.19 0.19 0.18 0.18 0.17 0.17 0.16 0.16 0.15 0.15 0.14 0.14 0.13 0.13 0.13 0.13 0.14 0.14 0.14 0.15 0.15 0.16 0.17 0.18 0.19 0.19 0.20 0.21 0.21 0.21 0.21 0.21 0.21 0.22 0.21 0.21 0.21 0.21 0.20 0.20 0.20 0.20 0.19 0.19 0.19 0.19 0.19 0.19 0.18 0.18 0.17 0.17 0.17 0.16 0.16 0.15 0.15 0.15 0.16 0.15 0.14 0.14 0.14 0.14 0.13 0.13 0.13 0.13 0.13 0.13 0.12 0.12 0.13 0.14 0.15 0.16
0.21 0.22 0.23 0.24 0.24 0.23 0.22 0.21 0.21 0.20 0.19 0.18 0.18 0.17 0.17 0.16 0.16 0.15 0.15 0.14 0.14 0.14 0.14 0.14 0.14 0.14 0.14 0.14 0.15 0.15 0.16 0.17 0.18 0.19 0.20 0.20 0.21 0.21 0.21 0.21 0.21 0.21 0.21 0.21 0.20 0.21 0.21 0.21 0.20 0.20 0.21 0.20 0.20 0.19 0.19 0.19 0.18 0.18 0.18 0.18 0.18 0.18 0.17 0.17 0.17 0.17 0.16 0.16 0.15 0.15 0.16 0.17 0.17 0.16 0.15 0.14 0.14 0.14 0.13 0.13 0.13 0.12 0.12 0.12 0.12
0.20 0.21 0.22 0.24 0.24 0.23 0.22 0.22 0.21 0.20 0.19 0.18 0.17 0.17 0.17 0.16 0.16 0.15 0.15 0.14 0.14 0.13 0.13 0.13 0.14 0.14 0.14 0.14 0.15 0.15 0.16 0.17 0.18 0.19 0.19 0.20 0.21 0.21 0.21 0.21 0.21 0.20 0.20 0.20 0.20 0.20 0.21 0.21 0.21 0.20 0.20 0.20 0.20 0.20 0.20 0.19 0.18 0.18 0.18 0.18 0.18 0.18 0.18 0.18 0.19 0.19 0.18 0.18 0.17 0.17 0.17 0.17 0.17 0.17 0.18 0.18 0.17 0.16 0.14 0.12 0.10 0.11 0.10 0.10 0.11
0.19 0.20 0.21 0.24 0.24 0.23 0.22 0.22 0.21 0.20 0.19 0.18 0.18 0.17 0.17 0.16 0.16 0.15 0.14 0.14 0.14 0.13 0.13 0.14 0.14 0.14 0.14 0.14 0.15 0.15 0.16 0.17 0.18 0.19 0.19 0.20 0.20 0.20 0.20 0.20 0.19 0.20 0.20 0.20 0.20 0.20 0.21 0.22 0.22 0.21 0.20 0.20 0.20 0.20 0.21 0.20 0.18 0.17 0.18 0.18 0.18 0.18 0.18 0.18 0.19 0.19 0.20 0.20 0.20 0.20 0.19 0.19 0.19 0.18 0.17 0.17 0.18 0.19 0.16 0.12 0.12 0.12 0.10 0.10 0.09
0.19 0.20 0.21 0.23 0.24 0.23 0.22 0.22 0.21 0.20 0.19 0.18 0.18 0.17 0.17 0.16 0.16 0.15 0.15 0.14 0.14 0.14 0.14 0.14 0.14 0.14 0.14 0.15 0.15 0.16 0.16 0.17 0.18 0.18 0.19 0.20 0.20 0.20 0.20 0.19 0.18 0.18 0.19 0.19 0.20 0.20 0.20 0.21 0.21 0.21 0.21 0.21 0.22 0.22 0.22 0.21 0.19 0.18 0.18 0.18 0.17 0.17 0.18 0.19 0.19 0.18 0.18 0.18 0.18 0.19 0.19 0.20 0.20 0.20 0.19 0.18 0.18 0.18 0.18 0.17 0.16 0.14 0.11 0.11 0.11
0.19 0.20 0.22 0.23 0.23 0.23 0.22 0.22 0.21 0.20 0.19 0.18 0.18 0.17 0.17 0.16 0.16 0.15 0.15 0.14 0.14 0.14 0.14 0.14 0.14 0.14 0.14 0.14 0.15 0.15 0.16 0.16 0.17 0.18 0.19 0.20 0.20 0.20 0.19 0.18 0.17 0.18 0.18 0.18 0.18 0.19 0.20 0.20 0.21 0.21 0.20 0.20 0.20 0.21 0.22 0.23 0.21 0.20 0.20 0.18 0.18 0.17 0.19 0.20 0.20 0.19 0.19 0.19 0.19 0.19 0.19 0.19 0.19 0.20 0.20 0.20 0.19 0.18 0.17 0.17 0.18 0.16 0.14 0.13 0.12
0.19 0.20 0.22 0.22 0.23 0.23 0.22 0.22 0.21 0.20 0.19 0.18 0.18 0.17 0.17 0.16 0.15 0.15 0.14 0.14 0.14 0.14 0.14 0.14 0.14 0.14 0.14 0.14 0.15 0.15 0.16 0.16 0.16 0.18 0.19 0.19 0.20 0.19 0.18 0.18 0.18 0.18 0.18 0.18 0.18 0.18 0.19 0.19 0.20 0.21 0.20 0.20 0.20 0.20 0.21 0.22 0.22 0.22 0.21 0.19 0.19 0.20 0.21 0.20 0.20 0.21 0.20 0.20 0.20 0.19 0.19 0.19 0.19 0.19 0.19 0.19 0.19 0.19 0.19 0.18 0.17 0.18 0.17 0.15 0.14
0.20 0.20 0.21 0.22 0.22 0.22 0.22 0.21 0.21 0.20 0.19 0.18 0.18 0.17 0.17 0.16 0.15 0.15 0.14 0.14 0.14 0.14 0.14 0.14 0.14 0.14 0.14 0.14 0.14 0.15 0.15 0.16 0.17 0.18 0.18 0.19 0.19 0.19 0.18 0.18 0.19 0.18 0.18 0.18 0.18 0.18 0.19 0.21 0.21 0.21 0.21 0.20 0.19 0.20 0.21 0.21 0.22 0.22 0.21 0.21 0.21 0.21 0.21 0.21 0.21 0.21 0.21 0.20 0.20 0.19 0.19 0.19 0.18 0.19 0.19 0.19 0.19 0.19 0.20 0.20 0.18 0.17 0.18 0.18 0.16
0.20 0.20 0.21 0.21 0.21 0.21 0.21 0.21 0.20 0.20 0.19 0.18 0.17 0.17 0.16 0.16 0.15 0.15 0.15 0.14 0.14 0.14 0.14 0.14 0.14 0.14 0.14 0.14 0.14 0.15 0.15 0.16 0.17 0.17 0.18 0.18 0.18 0.18 0.18 0.18 0.19 0.19 0.18 0.18 0.18 0.19 0.20 0.20 0.21 0.21 0.20 0.20 0.19 0.19 0.20 0.20 0.21 0.21 0.22 0.22 0.22 0.21 0.22 0.22 0.22 0.22 0.21 0.21 0.20 0.19 0.19 0.19 0.19 0.18 0.18 0.18 0.19 0.20 0.20 0.20 0.20 0.18 0.17 0.18 0.19
0.21 0.20 0.21 0.21 0.21 0.21 0.21 0.21 0.20 0.19 0.19 0.18 0.17 0.17 0.16 0.15 0.15 0.15 0.15 0.14 0.14 0.14 0.14 0.13 0.13 0.13 0.13 0.13 0.14 0.14 0.15 0.16 0.17 0.17 0.17 0.17 0.17 0.17 0.17 0.18 0.18 0.19 0.19 0.18 0.19 0.19 0.19 0.19 0.19 0.19 0.19 0.19 0.19 0.19 0.20 0.21 0.21 0.22 0.22 0.22 0.22 0.22 0.22 0.21 0.21 0.21 0.21 0.20 0.20 0.20 0.20 0.20 0.20 0.20 0.19 0.19 0.19 0.20 0.20 0.20 0.20 0.19 0.18 0.17 0.18
0.21 0.20 0.20 0.21 0.21 0.20 0.20 0.20 0.20 0.19 0.18 0.18 0.17 0.16 0.16 0.15 0.15 0.15 0.15 0.14 0.14 0.14 0.13 0.13 0.13 0.13 0.13 0.13 0.13 0.14 0.15 0.15 0.15 0.15 0.15 0.15 0.16 0.16 0.17 0.17 0.18 0.18 0.18 0.19 0.19 0.19 0.19 0.18 0.19 0.19 0.20 0.21 0.21 0.20 0.20 0.20 0.20 0.20 0.21 0.21 0.21 0.20 0.20 0.20 0.20 0.20 0.20 0.19 0.19 0.20 0.20 0.20 0.21 0.21 0.22 0.22 0.22 0.22 0.21 0.21 0.20 0.20 0.18 0.17 0.17
0.21 0.20 0.20 0.21 0.21 0.20 0.20 0.19 0.19 0.19 0.18 0.18 0.17 0.16 0.16 0.15 0.15 0.15 0.15 0.14 0.14 0.14 0.13 0.13 0.13 0.13 0.13 0.13 0.13 0.14 0.14 0.14 0.14 0.14 0.14 0.14 0.14 0.15 0.16 0.17 0.17 0.18 0.18 0.18 0.18 0.19 0.19 0.19 0.20 0.19 0.19 0.19 0.19 0.19 0.18 0.18 0.18 0.18 0.19 0.20 0.20 0.20 0.20 0.19 0.19 0.19 0.18 0.19 0.20 0.19 0.20 0.20 0.21 0.21 0.22 0.23 0.22 0.21 0.21 0.21 0.20 0.19 0.18 0.15 0.15
0.21 0.21 0.20 0.20 0.21 0.20 0.19 0.19 0.19 0.18 0.18 0.17 0.17 0.16 0.16 0.15 0.15 0.15 0.15 0.14 0.14 0.14 0.13 0.13 0.13 0.13 0.13 0.13 0.13 0.14 0.14 0.13 0.13 0.13 0.13 0.13 0.14 0.15 0.16 0.16 0.17 0.17 0.17 0.16 0.17 0.18 0.18 0.18 0.18 0.18 0.18 0.18 0.18 0.18 0.18 0.17 0.17 0.17 0.18 0.18 0.19 0.19 0.20 0.20 0.20 0.20 0.21 0.21 0.21 0.21 0.21 0.21 0.22 0.22 0.21 0.22 0.22 0.22 0.23 0.22 0.21 0.20 0.19 0.17 0.14
0.21 0.21 0.20 0.20 0.20 0.20 0.19 0.19 0.18 0.18 0.18 0.17 0.16 0.16 0.16 0.15 0.15 0.15 0.14 0.14 0.14 0.13 0.13 0.13 0.13 0.13 0.13 0.13 0.13 0.13 0.13 0.13 0.12 0.12 0.13 0.14 0.14 0.15 0.16 0.16 0.16 0.16 0.16 0.17 0.17 0.17 0.17 0.17 0.17 0.17 0.17 0.16 0.16 0.16 0.17 0.16 0.16 0.16 0.17 0.18 0.19 0.19 0.20 0.21 0.21 0.21 0.22 0.22 0.22 0.23 0.23 0.23 0.22 0.21 0.21 0.21 0.21 0.21 0.23 0.22 0.22 0.21 0.21 0.19 0.17
0.21 0.21 0.20 0.20 0.20 0.19 0.19 0.19 0.18 0.18 0.17 0.17 0.17 0.16 0.16 0.15 0.15 0.15 0.15 0.15 0.14 0.14 0.13 0.13 0.13 0.13 0.13 0.13 0.13 0.12 0.12 0.12 0.12 0.14 0.14 0.15 0.15 0.15 0.15 0.15 0.15 0.16 0.17 0.17 0.16 0.16 0.16 0.15 0.15 0.15 0.15 0.15 0.15 0.16 0.16 0.16 0.16 0.16 0.17 0.17 0.18 0.19 0.19 0.19 0.19 0.20 0.21 0.21 0.21 0.21 0.22 0.23 0.23 0.23 0.22 0.21 0.21 0.21 0.22 0.22 0.23 0.22 0.22 0.21 0.19
0.21 0.20 0.20 0.20 0.19 0.19 0.19 0.18 0.18 0.18 0.17 0.17 0.16 0.16 0.16 0.16 0.15 0.15 0.14 0.15 0.15 0.15 0.14 0.14 0.13 0.14 0.14 0.14 0.14 0.13 0.12 0.13 0.14 0.14 0.15 0.15 0.15 0.15 0.15 0.16 0.17 0.16 0.16 0.16 0.15 0.15 0.14 0.14 0.14 0.15 0.15 0.15 0.15 0.15 0.15 0.15 0.15 0.15 0.16 0.17 0.17 0.18 0.18 0.19 0.19 0.19 0.20 0.20 0.21 0.21 0.21 0.22 0.22 0.23 0.22 0.22 0.22 0.22 0.22 0.22 0.21 0.22 0.21 0.20 0.20
0.20 0.20 0.20 0.19 0.19 0.19 0.19 0.18 0.18 0.18 0.17 0.17 0.16 0.16 0.15 0.15 0.16 0.16 0.15 0.15 0.15 0.15 0.15 0.15 0.15 0.15 0.15 0.14 0.14 0.14 0.14 0.14 0.14 0.14 0.15 0.15 0.15 0.15 0.15 0.16 0.16 0.16 0.16 0.15 0.14 0.14 0.14 0.14 0.14 0.14 0.15 0.15 0.15 0.15 0.15 0.15 0.15 0.15 0.15 0.16 0.16 0.17 0.18 0.18 0.19 0.19 0.19 0.20 0.20 0.20 0.21 0.21 0.21 0.22 0.22 0.22 0.22 0.22 0.22 0.23 0.22 0.22 0.21 0.20 0.20
0.20 0.20 0.19 0.19 0.19 0.19 0.18 0.18 0.18 0.17 0.17 0.16 0.16 0.15 0.15 0.15 0.15 0.15 0.16 0.15 0.15 0.15 0.15 0.15 0.15 0.15 0.15 0.14 0.14 0.14 0.14 0.14 0.14 0.14 0.15 0.15 0.15 0.15 0.15 0.15 0.15 0.15 0.15 0.15 0.14 0.14 0.14 0.14 0.14 0.14 0.14 0.14 0.14 0.15 0.15 0.15 0.15 0.15 0.15 0.15 0.15 0.16 0.17 0.17 0.18 0.18 0.19 0.19 0.19 0.20 0.20 0.20 0.20 0.21 0.22 0.22 0.22 0.22 0.22 0.22 0.22 0.21 0.21 0.21 0.21
0.20 0.19 0.19 0.19 0.19 0.18 0.18 0.18 0.17 0.17 0.16 0.16 0.16 0.15 0.15 0.14 0.14 0.14 0.14 0.15 0.15 0.15 0.15 0.15 0.15 0.14 0.14 0.14 0.14 0.14 0.14 0.14 0.14 0.14 0.14 0.14 0.14 0.15 0.15 0.15 0.15 0.15 0.15 0.14 0.14 0.14 0.14 0.14 0.14 0.14 0.14 0.14 0.14 0.14 0.14 0.14 0.14 0.14 0.15 0.15 0.15 0.16 0.16 0.17 0.18 0.18 0.18 0.18 0.19 0.19 0.19 0.20 0.20 0.20 0.21 0.21 0.21 0.21 0.22 0.22 0.22 0.21 0.21 0.20 0.21
0.20 0.20 0.19 0.19 0.19 0.18 0.18 0.18 0.17 0.17 0.16 0.16 0.16 0.15 0.15 0.15 0.14 0.14 0.13 0.13 0.13 0.14 0.14 0.14 0.14 0.14 0.14 0.14 0.14 0.14 0.14 0.14 0.14 0.14 0.14 0.14 0.14 0.14 0.14 0.14 0.14 0.14 0.14 0.13 0.13 0.13 0.13 0.13 0.13 0.14 0.14 0.14 0.14 0.14 0.14 0.14 0.14 0.14 0.14 0.14 0.15 0.15 0.16 0.17 0.17 0.17 0.18 0.18 0.18 0.18 0.19 0.19 0.19 0.19 0.20 0.20 0.21 0.21 0.21 0.22 0.21 0.21 0.20 0.20 0.20
0.20 0.19 0.19 0.19 0.18 0.18 0.18 0.17 0.17 0.17 0.16 0.16 0.16 0.15 0.15 0.14 0.14 0.14 0.13 0.12 0.12 0.12 0.12 0.12 0.13 0.13 0.13 0.13 0.13 0.13 0.14 0.14 0.14 0.14 0.14 0.14 0.14 0.14 0.14 0.13 0.12 0.13 0.13 0.13 0.13 0.13 0.13 0.13 0.13 0.13 0.13 0.13 0.14 0.14 0.14 0.14 0.14 0.14 0.14 0.14 0.14 0.15 0.15 0.16 0.16 0.17 0.17 0.17 0.17 0.18 0.18 0.18 0.19 0.19 0.19 0.19 0.19 0.20 0.20 0.21 0.21 0.21 0.21 0.20 0.20
0.19 0.19 0.19 0.19 0.18 0.18 0.18 0.17 0.17 0.17 0.16 0.16 0.16 0.15 0.15 0.14 0.14 0.14 0.13 0.13 0.12 0.12 0.12 0.12 0.12 0.12 0.13 0.13 0.13 0.13 0.14 0.14 0.13 0.13 0.13 0.13 0.13 0.13 0.12 0.12 0.12 0.12 0.12 0.13 0.13 0.13 0.13 0.13 0.13 0.13 0.13 0.13 0.13 0.14 0.14 0.14 0.14 0.15 0.15 0.15 0.15 0.15 0.15 0.15 0.16 0.16 0.17 0.17 0.17 0.17 0.18 0.18 0.18 0.19 0.19 0.19 0.19 0.19 0.20 0.20 0.21 0.21 0.21 0.21 0.21
0.19 0.19 0.18 0.18 0.18 0.18 0.17 0.17 0.17 0.17 0.16 0.16 0.15 0.15 0.15 0.14 0.14 0.13 0.13 0.12 0.12 0.12 0.11 0.11 0.11 0.11 0.12 0.12 0.12 0.12 0.13 0.13 0.13 0.13 0.13 0.13 0.12 0.12 0.12 0.12 0.12 0.12 0.12 0.12 0.13 0.13 0.13 0.13 0.13 0.13 0.13 0.13 0.13 0.13 0.14 0.14 0.14 0.14 0.15 0.15 0.15 0.15 0.15 0.15 0.15 0.16 0.16 0.16 0.16 0.17 0.17 0.17 0.17 0.18 0.18 0.18 0.18 0.19 0.19 0.20 0.20 0.20 0.21 0.21 0.21
0.19 0.19 0.18 0.18 0.18 0.17 0.17 0.17 0.17 0.16 0.16 0.16 0.15 0.15 0.14 0.14 0.14 0.13 0.13 0.12 0.12 0.12 0.11 0.11 0.11 0.11 0.10 0.11 0.12 0.12 0.12 0.12 0.12 0.12 0.12 0.12 0.11 0.11 0.11 0.12 0.12 0.11 0.11 0.12 0.12 0.12 0.12 0.12 0.12 0.13 0.13 0.13 0.13 0.13 0.13 0.14 0.14 0.14 0.14 0.14 0.14 0.14 0.15 0.15 0.15 0.15 0.15 0.16 0.16 0.16 0.16 0.17 0.17 0.17 0.18 0.18 0.18 0.18 0.18 0.19 0.19 0.19 0.20 0.20 0.21
0.19 0.18 0.18 0.18 0.17 0.17 0.17 0.17 0.16 0.16 0.16 0.15 0.15 0.15 0.14 0.14 0.13 0.13 0.12 0.12 0.12 0.12 0.11 0.11 0.11 0.10 0.10 0.11 0.11 0.11 0.11 0.11 0.11 0.11 0.11 0.11 0.11 0.11 0.11 0.11 0.11 0.11 0.11 0.11 0.11 0.12 0.12 0.12 0.12 0.12 0.12 0.13 0.13 0.13 0.13 0.13 0.14 0.14 0.14 0.14 0.14 0.14 0.14 0.14 0.14 0.15 0.15 0.15 0.16 0.16 0.16 0.16 0.17 0.17 0.17 0.17 0.17 0.18 0.18 0.18 0.19 0.19 0.19 0.19 0.20
0.18 0.18 0.18 0.17 0.17 0.17 0.17 0.16 0.16 0.16 0.15 0.15 0.15 0.14 0.14 0.14 0.13 0.13 0.12 0.12 0.11 0.11 0.11 0.11 0.10 0.10 0.10 0.11 0.10 0.10 0.10 0.10 0.10 0.11 0.11 0.11 0.11 0.11 0.11 0.11 0.11 0.11 0.11 0.11 0.11 0.11 0.11 0.11 0.12 0.12 0.12 0.12 0.12 0.13 0.13 0.13 0.13 0.13 0.14 0.14 0.14 0.14 0.14 0.14 0.14 0.14 0.15 0.15 0.15 0.15 0.16 0.16 0.16 0.17 0.17 0.17 0.17 0.17 0.18 0.18 0.18 0.19 0.19 0.19 0.20
0.18 0.18 0.17 0.17 0.17 0.17 0.16 0.16 0.16 0.16 0.15 0.15 0.15 0.14 0.14 0.14 0.13 0.13 0.12 0.12 0.11 0.11 0.11 0.11 0.10 0.10 0.10 0.11 0.11 0.10 0.10 0.10 0.10 0.10 0.10 0.10 0.10 0.10 0.10 0.10 0.10 0.10 0.11 0.11 0.11 0.11 0.11 0.11 0.12 0.12 0.12 0.12 0.12 0.12 0.12 0.13 0.13 0.13 0.13 0.13 0.13 0.14 0.14 0.14 0.14 0.14 0.14 0.15 0.15 0.15 0.15 0.16 0.16 0.16 0.16 0.17 0.17 0.17 0.17 0.18 0.18 0.18 0.19 0.19 0.19
0.18 0.17 0.17 0.17 0.17 0.16 0.16 0.16 0.16 0.15 0.15 0.15 0.15 0.14 0.14 0.14 0.13 0.13 0.12 0.12 0.11 0.11 0.11 0.11 0.10 0.10 0.10 0.11 0.11 0.11 0.10 0.10 0.10 0.10 0.10 0.10 0.10 0.10 0.10 0.10 0.10 0.10 0.10 0.10 0.10 0.11 0.11 0.11 0.11 0.11 0.12 0.12 0.12 0.12 0.12 0.12 0.12 0.13 0.13 0.13 0.13 0.13 0.13 0.13 0.14 0.14 0.14 0.14 0.15 0.15 0.15 0.15 0.16 0.16 0.16 0.16 0.16 0.17 0.17 0.17 0.17 0.18 0.18 0.18 0.19
0.17 0.17 0.17 0.16 0.16 0.16 0.16 0.16 0.15 0.15 0.15 0.15 0.14 0.14 0.14 0.14 0.13 0.13 0.12 0.12 0.11 0.11 0.11 0.10 0.10 0.10 0.10 0.11 0.11 0.10 0.10 0.10 0.10 0.09 0.09 0.09 0.09 0.09 0.09 0.09 0.09 0.09 0.10 0.10 0.10 0.10 0.10 0.10 0.11 0.11 0.11 0.11 0.12 0.12 0.12 0.12 0.12 0.12 0.12 0.12 0.13 0.13 0.13 0.13 0.13 0.14 0.14 0.14 0.14 0.15 0.15 0.15 0.15 0.15 0.16 0.16 0.16 0.16 0.17 0.17 0.17 0.17 0.18 0.18 0.18
0.17 0.17 0.16 0.16 0.16 0.16 0.16 0.15 0.15 0.15 0.15 0.15 0.14 0.14 0.14 0.13 0.13 0.13 0.12 0.12 0.11 0.11 0.11 0.11 0.10 0.10 0.10 0.10 0.10 0.10 0.10 0.10 0.09 0.09 0.09 0.09 0.09 0.09 0.09 0.09 0.09 0.09 0.09 0.09 0.09 0.09 0.09 0.09 0.10 0.10 0.10 0.11 0.11 0.11 0.12 0.12 0.12 0.12 0.12 0.12 0.12 0.12 0.12 0.13 0.13 0.13 0.13 0.14 0.14 0.14 0.14 0.15 0.15 0.15 0.15 0.16 0.16 0.16 0.16 0.16 0.17 0.17 0.17 0.17 0.18
0.17 0.16 0.16 0.16 0.16 0.15 0.15 0.15 0.15 0.15 0.15 0.15 0.14 0.14 0.14 0.13 0.13 0.13 0.12 0.12 0.11 0.11 0.11 0.11 0.10 0.10 0.10 0.10 0.10 0.10 0.10 0.10 0.10 0.09 0.09 0.09 0.09 0.09 0.09 0.09 0.09 0.09 0.09 0.09 0.09 0.09 0.09 0.09 0.09 0.09 0.09 0.10 0.10 0.10 0.11 0.11 0.11 0.12 0.12 0.12 0.12 0.12 0.12 0.12 0.13 0.13 0.13 0.13 0.13 0.13 0.14 0.14 0.14 0.15 0.15 0.15 0.16 0.15 0.16 0.16 0.16 0.16 0.17 0.17 0.17
0.16 0.16 0.16 0.15 0.15 0.15 0.15 0.15 0.15 0.15 0.14 0.14 0.14 0.14 0.13 0.13 0.13 0.12 0.12 0.12 0.12 0.11 0.11 0.11 0.10 0.10 0.10 0.10 0.10 0.09 0.09 0.09 0.09 0.09 0.09 0.09 0.09 0.09 0.09 0.09 0.09 0.09 0.09 0.09 0.10 0.10 0.10 0.09 0.09 0.09 0.09 0.09 0.09 0.09 0.10 0.10 0.10 0.10 0.11 0.11 0.11 0.12 0.12 0.12 0.12 0.13 0.13 0.13 0.13 0.13 0.13 0.13 0.14 0.14 0.14 0.15 0.15 0.15 0.15 0.16 0.16 0.16 0.16 0.16 0.17
0.15 0.16 0.15 0.15 0.15 0.14 0.14 0.14 0.14 0.14 0.14 0.14 0.14 0.13 0.13 0.13 0.13 0.12 0.12 0.12 0.12 0.11 0.11 0.11 0.10 0.10 0.10 0.10 0.09 0.09 0.09 0.09 0.09 0.09 0.09 0.09 0.09 0.09 0.09 0.09 0.09 0.09 0.09 0.09 0.09 0.09 0.09 0.09 0.09 0.09 0.09 0.09 0.09 0.09 0.09 0.09 0.09 0.10 0.10 0.10 0.10 0.11 0.11 0.12 0.12 0.12 0.12 0.13 0.13 0.13 0.13 0.13 0.13 0.13 0.13 0.14 0.14 0.15 0.15 0.15 0.15 0.15 0.16 0.16 0.16
0.13 0.13 0.14 0.15 0.14 0.14 0.14 0.14 0.14 0.14 0.14 0.14 0.13 0.13 0.13 0.13 0.12 0.12 0.12 0.12 0.12 0.11 0.11 0.11 0.10 0.10 0.10 0.10 0.09 0.09 0.09 0.09 0.09 0.09 0.09 0.09 0.09 0.09 0.09 0.09 0.09 0.09 0.09 0.09 0.09 0.09 0.09 0.09 0.09 0.09 0.09 0.09 0.09 0.09 0.09 0.09 0.09 0.09 0.09 0.09 0.10 0.10 0.10 0.11 0.11 0.11 0.12 0.12 0.12 0.12 0.13 0.13 0.13 0.13 0.13 0.13 0.13 0.14 0.14 0.14 0.15 0.15 0.15 0.16 0.16
0.12 0.12 0.12 0.13 0.14 0.14 0.14 0.14 0.13 0.13 0.13 0.13 0.13 0.13 0.13 0.13 0.12 0.12 0.12 0.12 0.11 0.11 0.11 0.11 0.10 0.10 0.10 0.10 0.09 0.09 0.09 0.09 0.09 0.08 0.08 0.08 0.08 0.08 0.08 0.08 0.08 0.08 0.08 0.08 0.08 0.09 0.09 0.09 0.09 0.09 0.09 0.09 0.09 0.09 0.09 0.09 0.09 0.09 0.09 0.09 0.09 0.09 0.09 0.10 0.10 0.11 0.11 0.11 0.12 0.12 0.12 0.12 0.12 0.12 0.13 0.13 0.13 0.13 0.13 0.14 0.14 0.14 0.15 0.15 0.15
0.11 0.11 0.11 0.12 0.12 0.13 0.13 0.13 0.13 0.13 0.13 0.13 0.13 0.13 0.13 0.12 0.12 0.12 0.12 0.12 0.11 0.11 0.11 0.11 0.10 0.10 0.10 0.09 0.09 0.09 0.09 0.09 0.08 0.08 0.08 0.08 0.08 0.08 0.08 0.08 0.08 0.08 0.08 0.08 0.08 0.08 0.08 0.08 0.08 0.09 0.09 0.09 0.09 0.09 0.09 0.09 0.09 0.09 0.09 0.09 0.09 0.09 0.09 0.09 0.09 0.10 0.10 0.11 0.11 0.11 0.11 0.12 0.12 0.12 0.12 0.12 0.12 0.12 0.13 0.13 0.13 0.14 0.14 0.14 0.15
0.11 0.11 0.11 0.11 0.11 0.11 0.12 0.12 0.12 0.12 0.12 0.12 0.12 0.12 0.12 0.12 0.12 0.12 0.12 0.11 0.11 0.11 0.11 0.10 0.10 0.10 0.10 0.09 0.09 0.09 0.09 0.08 0.08 0.08 0.08 0.08 0.08 0.08 0.08 0.07 0.07 0.07 0.07 0.07 0.07 0.07 0.07 0.08 0.08 0.08 0.08 0.08 0.08 0.08 0.08 0.08 0.09 0.09 0.09 0.09 0.09 0.09 0.09 0.09 0.09 0.09 0.09 0.10 0.10 0.10 0.11 0.11 0.11 0.11 0.12 0.12 0.12 0.12 0.12 0.12 0.13 0.13 0.13 0.14 0.14
Wind_Speed
44 43 43 42 42 41 40 39 38 37 36 35 34 33 32 31 31 31 31 31 31 31 30 29 29 29 29 29 28 28 27 27 27 26 25 25 24 23 23 24 24 24 24 24 25 25 25 26 27 29 30 32 34 36 40 43 46 49 51 53 55 57 59 60 61 61 62 63 64 64 63 64 63 63 61 60 59 58 57 57 57 57 57 56 56
44 43 43 42 41 41 40 39 37 37 36 35 34 33 32 31 31 31 31 31 31 31 30 29 29 29 29 29 29 28 28 27 27 26 25 25 24 24 23 24 24 23 24 24 24 24 24 25 26 27 28 30 32 34 37 40 44 47 49 51 52 54 55 57 59 59 60 61 62 63 63 63 64 63 62 62 61 60 59 58 58 58 58 57 57
44 43 42 42 41 40 39 38 37 36 36 35 34 33 32 31 31 31 31 31 30 30 30 30 29 29 29 29 29 29 28 28 27 26 26 25 25 24 24 24 24 23 23 24 24 23 23 24 25 26 27 28 30 32 35 38 41 44 47 49 50 52 53 54 56 58 58 59 60 61 62 63 63 64 63 63 62 62 61 60 59 59 58 58 58
44 43 42 41 41 40 38 38 37 36 35 35 34 33 32 31 31 31 30 30 30 30 30 30 29 29 29 29 29 29 29 28 27 27 26 25 25 24 24 24 23 23 23 23 24 23 23 23 24 24 25 26 27 29 32 35 39 42 44 47 48 50 51 52 53 55 56 57 57 59 61 62 62 63 64 64 63 63 63 62 61 60 60 59 59
44 43 41 41 40 39 38 37 37 36 35 35 34 33 31 31 30 30 30 29 29 29 30 29 29 29 29 29 29 29 28 28 27 27 26 26 25 25 25 24 23 23 23 24 23 23 23 23 23 23 23 24 25 26 28 32 35 38 41 44 46 47 49 50 51 52 54 55 55 56 58 60 61 62 63 64 64 64 64 63 63 62 62 61 60
44 43 41 41 40 39 37 37 36 36 35 34 34 33 31 30 30 29 29 29 29 29 29 29 28 28 29 28 29 28 28 27 27 27 26 26 25 25 25 24 24 23 23 23 23 22 21 21 21 21 21 22 22 23 24 27 31 35 38 41 43 44 46 48 48 49 51 53 54 54 55 57 59 61 62 63 64 65 65 64 64 63 63 63 62
43 43 41 40 40 39 37 37 36 35 34 34 33 32 31 30 29 29 28 28 28 28 28 28 28 28 28 28 28 28 27 27 27 26 26 26 25 24 24 24 24 23 23 22 22 21 21 21 21 21 20 21 21 21 21 23 27 30 34 37 39 41 43 45 46 47 48 50 51 52 53 54 57 59 60 62 63 64 65 65 65 64 63 63 64
43 42 41 40 39 38 37 36 35 34 34 33 32 32 30 29 29 28 28 28 28 28 28 28 28 28 28 28 27 27 27 26 26 26 26 25 25 24 24 24 24 23 23 22 22 22 22 21 21 21 20 20 20 20 20 20 23 26 30 34 36 38 40 42 44 45 46 47 48 50 52 53 54 56 58 60 62 63 64 64 65 65 64 63 64
42 41 40 40 39 38 37 36 34 33 33 33 32 31 30 29 28 28 28 28 27 27 27 27 27 27 27 27 27 27 26 26 26 26 25 25 24 24 24 24 24 24 23 23 23 22 22 22 21 21 21 20 20 20 20 20 21 23 26 30 34 36 37 39 41 42 44 45 45 47 49 51 52 54 55 58 60 61 62 63 65 65 66 66 65
41 40 40 39 38 37 36 35 34 33 33 32 31 30 29 28 28 28 28 27 27 27 27 27 27 27 27 27 26 26 25 25 25 25 24 24 24 24 24 24 24 24 23 23 23 23 22 22 21 21 21 21 20 20 20 21 21 22 24 27 30 33 35 37 38 40 41 42 43 44 46 48 50 51 53 55 57 59 60 62 64 65 66 66 67
40 39 39 38 37 36 35 35 34 33 32 31 30 30 29 28 28 27 27 27 27 27 27 26 26 26 26 26 26 25 24 24 25 24 24 24 23 23 24 24 24 23 23 23 23 23 22 21 20 20 20 19 19 20 20 21 22 22 24 25 27 30 33 35 36 38 39 40 41 42 43 45 47 48 51 52 54 56 58 60 62 63 64 65 66
40 39 38 37 36 35 35 34 33 32 31 30 30 29 29 28 27 27 27 27 26 26 26 26 26 25 25 25 25 24 24 24 24 24 24 24 23 23 23 23 23 23 22 23 23 23 22 21 19 18 18 18 18 19 19 20 21 22 24 25 27 28 30 32 34 35 37 38 39 40 42 43 44 46 48 50 52 54 56 57 59 61 62 64 65
39 38 38 36 35 34 34 33 32 31 30 30 29 28 28 28 27 27 26 26 26 26 26 25 25 25 24 24 24 24 24 24 24 24 24 24 23 23 23 23 22 22 22 22 22 22 21 20 18 17 17 17 17 17 18 19 20 21 23 24 26 27 29 31 32 33 35 36 37 39 40 41 42 43 45 48 50 52 54 56 58 59 61 62 64
39 38 37 35 34 33 33 32 32 31 30 29 28 28 28 27 27 26 26 26 26 26 25 25 24 24 24 24 24 24 23 23 23 23 23 23 23 22 22 22 22 22 22 21 20 20 20 19 18 17 16 16 16 17 17 18 18 19 21 22 24 26 27 29 31 32 33 34 35 36 38 39 41 42 43 46 48 51 53 55 56 58 60 61 63
39 38 36 35 33 33 32 32 31 30 29 28 28 28 27 27 26 26 26 26 25 25 24 24 24 24 23 23 23 23 23 23 23 23 23 23 22 22 21 22 22 22 21 19 19 19 19 18 18 17 16 16 17 17 17 17 18 18 19 21 22 24 26 27 28 30 31 32 33 34 35 37 38 39 41 43 45 48 50 53 55 57 59 60 62
39 38 36 34 33 32 31 31 30 29 28 27 27 27 27 26 26 26 25 25 25 24 24 24 23 23 23 23 23 23 22 22 22 22 22 22 22 21 21 21 21 20 19 19 19 19 18 18 18 17 17 17 17 17 17 17 17 18 19 20 21 23 24 26 28 29 30 31 32 32 33 34 36 37 38 39 41 43 46 49 52 55 57 58 60
39 38 36 34 33 32 31 30 30 29 28 27 27 26 26 26 25 25 25 25 24 23 23 23 23 22 22 22 22 22 22 21 21 21 21 21 21 20 20 20 20 19 19 19 20 19 19 18 18 18 17 17 17 17 17 17 17 18 19 20 20 21 23 24 27 29 30 31 32 32 33 34 34 35 36 37 37 38 40 44 47 50 53 55 57
39 37 36 34 32 31 30 29 29 29 28 27 26 25 25 25 25 24 24 24 23 23 22 22 22 21 21 21 21 21 21 20 20 20 20 20 20 19 19 19 19 19 20 20 20 20 20 19 19 18 18 17 17 17 17 17 17 18 18 19 20 21 22 23 24 26 28 29 30 31 32 33 33 34 35 36 37 36 37 39 41 43 47 51 53
39 37 36 33 31 30 29 29 29 28 27 26 25 25 24 24 24 24 24 23 23 22 22 21 21 21 20 20 20 20 20 20 19 19 20 20 19 19 18 19 19 19 20 20 21 21 20 20 20 19 19 19 18 18 18 18 18 18 19 19 20 21 21 22 23 24 25 26 28 29 30 30 31 32 33 34 36 36 36 37 37 39 42 45 48
40 37 35 33 30 29 28 28 28 28 27 25 25 24 24 24 24 23 23 23 22 21 21 21 21 20 20 20 20 19 19 19 19 18 19 19 19 18 18 19 19 19 20 21 21 21 21 21 21 21 21 20 20 20 19 19 19 19 19 20 20 21 21 22 23 24 24 25 26 27 27 28 29 29 30 31 33 34 34 35 36 37 38 40 43
40 37 35 32 30 28 27 27 27 27 26 25 24 24 24 23 23 23 23 22 21 21 20 20 20 20 19 19 19 19 18 18 18 17 17 18 18 18 18 18 19 20 20 20 21 21 21 21 21 21 22 21 22 21 21 21 20 20 19 20 21 21 21 21 23 24 24 24 25 25 26 27 27 28 29 30 31 32 32 33 34 36 37 37 39
39 37 34 32 30 28 27 27 27 26 26 25 24 24 23 23 22 22 22 21 21 20 20 19 19 19 18 18 18 18 17 17 17 17 16 17 17 18 18 19 19 19 19 19 19 20 20 20 20 20 21 22 23 23 22 22 22 21 21 21 22 22 22 21 22 23 23 24 24 25 25 26 26 27 28 29 30 30 31 32 33 34 36 37 37
39 36 34 32 29 28 28 26 26 26 25 24 24 23 23 22 22 21 21 21 20 19 19 19 18 18 18 17 17 17 16 16 16 16 16 16 17 18 19 19 19 18 18 18 18 19 19 20 20 20 22 23 23 23 23 22 22 21 21 21 21 21 21 21 21 22 23 24 24 25 25 25 25 26 27 27 28 29 30 31 31 32 34 35 36
38 35 33 31 29 28 28 26 25 25 24 24 23 23 22 22 21 21 20 20 19 19 18 17 17 17 17 17 16 16 16 15 16 16 16 16 17 18 19 18 18 18 18 18 18 18 19 20 21 22 23 22 22 22 22 21 20 20 21 21 20 20 20 20 20 21 21 22 23 23 24 25 25 26 26 26 26 27 27 28 29 31 32 33 34
36 34 33 30 28 27 26 25 24 24 23 23 23 23 22 21 20 20 20 19 19 18 17 16 16 17 16 16 16 16 15 15 16 16 17 17 17 18 18 18 18 18 18 18 18 18 19 20 21 22 21 20 20 20 21 21 21 21 21 21 21 21 20 20 20 21 21 21 22 22 23 24 25 25 25 25 25 25 26 26 27 28 29 30 32
35 33 31 29 27 26 25 24 24 23 23 22 22 22 21 20 19 19 19 18 18 17 16 16 16 16 16 16 16 15 15 16 16 17 17 17 17 16 17 17 17 17 18 18 18 19 19 19 20 20 20 20 20 20 21 21 22 22 22 22 22 22 21 21 21 21 21 21 22 23 23 23 24 24 24 25 25 25 25 25 25 26 27 28 29
34 32 30 28 26 25 24 23 23 22 22 22 21 21 20 19 19 19 18 18 17 16 16 15 15 15 15 15 15 15 16 16 17 17 17 16 15 15 15 16 17 17 17 17 18 18 18 18 18 19 20 20 20 20 21 21 21 21 21 21 21 20 20 20 20 20 20 20 20 22 23 23 24 24 24 24 24 25 25 25 25 25 25 26 27
32 30 29 27 26 24 23 22 22 22 22 21 21 20 19 19 18 18 18 17 17 16 15 15 15 15 15 15 15 16 16 17 17 16 15 14 14 15 15 15 16 16 16 16 15 16 16 17 17 18 19 19 19 19 20 20 20 20 20 19 19 19 19 19 19 19 19 19 19 19 20 22 23 24 24 24 24 24 24 24 25 25 25 25 26
30 29 28 26 25 23 22 21 21 22 21 21 20 20 19 18 18 17 17 17 16 16 15 15 15 15 15 16 16 16 16 16 16 15 15 15 15 15 14 14 15 14 13 13 14 15 16 16 16 17 17 17 17 17 17 17 18 18 18 18 18 18 18 18 18 18 18 18 18 18 18 19 21 22 23 23 23 23 23 23 24 24 24 25 25
29 27 26 25 24 22 21 21 20 21 21 20 19 19 18 18 18 17 17 17 17 16 15 15 15 15 15 16 16 16 16 16 15 15 15 15 14 14 14 13 13 12 12 13 14 15 15 15 15 15 15 15 15 15 15 15 16 16 17 17 18 18 18 18 18 18 18 17 17 17 17 18 19 20 22 23 23 23 23 23 23 23 23 24 25
27 26 25 24 23 22 20 20 20 20 20 20 19 18 18 17 17 17 17 16 16 16 16 16 16 16 16 15 15 16 16 16 15 15 15 14 13 13 13 12 12 13 13 14 14 14 14 13 13 12 12 12 13 13 14 14 14 15 16 16 17 17 18 18 18 18 18 18 17 17 17 17 18 18 19 21 22 23 23 23 23 23 23 24 24
26 25 24 23 23 21 20 19 19 19 20 19 18 18 17 16 16 17 17 16 16 15 16 16 16 16 15 15 15 16 15 15 15 14 14 14 13 13 12 11 12 12 12 12 12 11 11 10 10 10 10 11 12 13 13 14 14 14 15 15 16 16 17 17 18 18 18 18 18 17 17 17 17 17 18 18 20 21 22 23 23 23 24 24 24
25 24 23 23 22 21 19 18 18 19 19 19 18 17 16 15 15 15 15 16 15 14 14 14 14 14 15 15 15 15 15 14 14 14 14 14 13 12 11 11 11 11 10 10 10 9 9 9 9 9 10 10 11 12 12 13 13 14 14 15 15 16 16 17 17 17 17 17 18 18 17 17 17 17 17 17 18 19 20 21 21 22 23 24 24
24 23 22 22 21 20 18 17 18 19 19 18 17 16 16 15 14 14 14 15 15 15 14 14 14 14 15 15 16 15 14 14 14 14 14 14 13 12 11 11 11 10 9 9 9 8 8 8 9 9 10 10 10 11 12 12 13 14 14 15 15 16 16 16 16 16 17 17 17 17 17 17 17 17 17 17 17 18 18 19 20 20 21 21 22
23 22 21 21 20 19 18 17 17 18 18 18 17 16 16 15 14 14 14 14 15 15 15 15 15 15 15 16 15 15 14 13 14 14 13 13 12 12 11 11 11 10 9 8 8 8 8 8 9 9 10 10 11 11 11 12 13 13 14 15 15 16 16 16 17 17 17 17 17 17 17 17 17 17 17 17 17 17 17 18 18 19 19 19 20
22 21 20 19 19 18 17 17 17 17 18 18 17 16 16 15 14 14 14 14 14 15 15 15 15 15 15 15 15 14 13 13 13 13 12 12 12 12 11 10 10 9 9 8 8 8 8 8 9 9 10 10 11 11 11 11 12 13 13 14 15 16 16 16 17 17 17 17 17 16 17 17 17 17 17 17 17 17 17 17 17 18 18 19 19
21 19 19 19 19 18 17 17 17 17 18 18 17 17 16 15 15 15 14 14 14 14 15 15 15 15 15 15 14 14 14 13 12 12 12 11 11 11 10 10 9 9 9 9 8 8 8 8 8 9 9 10 10 10 11 11 11 12 12 13 14 15 16 16 16 17 17 17 17 17 17 17 17 17 17 17 17 18 18 18 18 18 18 18 19
20 18 18 18 18 18 17 16 16 17 17 18 18 17 17 16 16 15 15 15 15 14 15 15 15 14 15 15 14 14 14 13 13 13 12 12 11 10 10 10 10 9 9 9 9 9 9 9 9 9 9 9 10 10 10 10 11 11 11 12 13 14 15 15 16 16 16 16 17 17 17 17 17 17 17 17 18 18 19 19 19 19 19 18 18
19 17 17 17 18 18 17 16 15 16 17 17 17 17 17 16 16 15 15 15 15 15 15 15 14 15 14 14 14 14 14 14 13 13 12 12 11 11 10 10 10 10 10 10 10 9 9 9 9 9 9 9 9 10 10 10 10 11 11 11 11 12 13 14 15 15 16 16 16 17 17 17 17 17 18 18 18 18 19 20 20 20 20 20 19
19 17 16 16 16 16 16 15 15 16 17 17 17 16 16 16 16 15 15 15 15 15 15 14 14 14 14 14 14 14 13 13 13 13 12 12 11 11 11 10 10 10 10 11 11 10 10 9 9 9 9 9 9 9 10 10 10 10 11 11 11 11 12 13 14 15 15 16 16 17 17 17 18 18 18 18 18 19 19 20 21 21 21 22 22
18 16 15 15 15 15 14 14 15 15 16 16 16 16 16 16 16 15 15 15 15 15 15 15 14 14 14 14 14 14 13 13 13 13 13 12 12 12 11 11 11 11 11 11 11 11 10 10 10 10 9 9 9 9 9 9 10 10 10 11 11 11 11 12 12 13 14 15 16 16 17 18 18 18 19 19 19 20 20 20 21 21 22 23 23
18 16 14 14 15 14 14 14 15 15 16 16 16 16 16 16 15 15 15 15 15 15 15 15 14 14 14 14 14 13 13 13 13 13 13 13 13 12 12 12 11 11 11 11 11 11 11 11 11 11 10 10 10 9 9 9 10 10 10 10 11 11 11 12 12 12 13 14 15 16 17 18 18 19 19 19 20 20 20 21 21 21 22 23 24
18 16 14 14 14 14 14 14 15 15 16 16 16 16 16 16 15 15 16 15 15 15 15 15 14 14 14 14 13 12 13 13 13 13 13 13 13 13 13 12 12 12 12 12 12 12 12 12 12 12 11 11 11 10 10 10 10 10 10 10 11 11 11 12 12 12 13 13 14 15 16 17 18 19 19 20 20 20 21 21 21 22 22 22 23
17 16 14 14 14 14 14 14 15 15 16 16 16 16 16 16 16 16 16 16 16 15 15 15 14 14 14 14 14 13 14 14 14 14 14 14 13 13 13 13 13 13 13 12 12 12 12 12 12 12 12 12 12 12 11 11 11 11 11 11 11 11 12 12 12 13 13 14 14 14 15 15 16 17 18 19 20 21 21 21 22 22 22 22 23
17 16 15 14 14 14 14 14 14 15 16 16 16 16 17 17 17 16 16 16 16 16 15 15 15 15 15 15 14 14 14 14 14 14 14 14 14 14 14 14 13 13 13 13 13 13 13 13 13 13 12 12 12 12 12 12 12 12 12 12 12 12 12 12 13 13 13 14 14 14 15 15 15 16 17 18 19 20 21 21 22 22 23 23 23
18 16 15 15 15 15 15 14 15 15 16 16 17 17 17 17 17 17 17 16 16 16 16 16 16 15 15 15 15 15 15 15 15 15 14 14 14 14 14 14 14 14 14 14 13 13 13 13 13 13 13 13 13 13 13 13 13 13 13 13 13 13 13 13 14 14 14 14 14 14 15 15 15 16 16 16 17 18 20 21 21 22 23 23 23
18 16 15 15 15 15 15 15 15 16 16 17 17 17 17 17 17 17 17 17 17 17 17 17 16 16 16 16 16 16 15 15 15 15 15 15 15 15 15 15 14 14 14 14 14 14 14 14 14 14 14 14 14 14 14 13 13 13 13 13 14 14 14 14 15 15 15 15 15 15 15 15 15 16 16 16 17 17 18 19 20 21 22 22 23
19 17 16 15 15 15 15 15 16 16 17 17 18 18 18 18 18 18 18 18 18 18 18 18 17 17 17 17 17 16 16 16 16 16 16 16 15 15 15 15 15 15 15 14 14 14 14 14 14 14 14 14 14 14 14 14 14 14 14 14 14 14 15 15 15 15 16 16 16 15 15 15 15 16 16 16 16 17 17 18 18 19 20 21 22
19 18 16 15 15 15 15 15 16 17 17 18 18 18 18 18 18 18 18 18 18 18 18 18 18 18 18 18 17 17 17 17 17 17 16 16 16 16 16 16 16 15 15 15 15 15 15 14 14 14 14 15 15 15 15 15 15 15 15 15 15 15 15 15 16 16 16 16 16 16 16 16 16 16 16 16 16 17 17 17 17 18 19 19 20
20 18 17 16 16 15 15 16 16 17 17 18 18 18 19 19 19 19 19 19 19 19 19 19 19 19 19 19 18 18 18 18 18 18 17 17 17 17 17 17 16 16 16 16 16 16 15 15 15 15 15 15 15 15 15 16 16 16 16 16 15 16 16 16 16 17 17 17 17 17 17 17 17 17 17 17 17 17 17 17 17 17 18 18 19
20 19 18 17 17 16 16 16 16 16 17 18 18 19 19 19 19 19 19 19 19 19 19 20 20 20 20 19 19 19 19 19 19 19 18 18 18 18 18 18 17 17 17 17 16 16 16 16 16 16 16 16 16 16 16 16 16 16 16 16 16 16 16 17 17 17 17 17 17 17 17 18 18 18 18 17 17 17 17 17 18 18 18 18 18
Wind_Direction
312 311 311 311 310 310 309 308 307 306 304 302 300 298 296 292 290 288 287 285 284 284 284 285 285 286 287 288 288 288 289 290 290 291 292 293 293 292 290 288 287 288 290 290 288 284 279 275 271 267 263 259 256 252 248 244 240 238 237 236 235 234 234 234 234 233 233 232 232 232 232 232 232 232 231 231 230 230 230 230 230 230 230 230 230
312 312 311 310 309 308 308 306 306 305 304 302 300 299 296 293 290 288 287 285 284 283 283 284 284 285 286 286 286 287 287 288 288 288 289 290 291 291 290 289 287 288 290 291 290 287 282 278 274 270 266 262 259 254 250 246 242 239 237 235 234 234 233 233 233 233 233 232 232 232 232 231 231 231 231 231 231 230 230 230 230 230 230 230 230
312 312 311 309 308 307 307 305 305 304 304 303 301 299 296 293 291 289 287 285 284 283 283 283 284 284 284 285 285 285 286 286 286 286 286 287 289 290 290 289 287 287 289 292 292 289 285 281 276 272 269 266 262 257 252 247 243 239 237 235 234 233 233 233 233 233 233 233 232 232 232 232 231 231 231 231 231 231 231 231 230 230 230 230 230
312 312 311 308 307 306 305 304 303 303 304 303 301 299 297 294 291 289 287 285 284 283 283 283 283 283 283 284 284 284 284 284 284 284 284 285 286 287 288 288 287 287 288 291 292 291 288 284 279 275 272 269 266 260 254 248 243 239 236 234 234 233 232 232 233 233 233 233 232 232 232 232 232 232 232 232 232 232 232 232 231 231 231 231 230
312 312 310 308 306 305 304 303 302 302 303 302 301 299 297 294 292 290 287 285 284 284 283 283 282 282 282 283 284 283 283 283 282 282 282 283 284 285 287 287 286 285 286 289 291 291 289 287 283 278 274 272 269 264 256 249 243 239 236 234 233 233 233 232 232 233 233 233 233 233 233 233 233 233 233 233 233 233 233 233 233 232 232 231 231
311 311 310 308 305 304 302 302 301 300 301 301 301 300 298 295 292 290 288 286 284 284 283 283 282 282 282 283 283 283 282 281 281 281 281 281 283 284 285 285 284 284 285 287 289 290 290 289 286 281 277 274 271 267 260 252 244 239 236 234 232 232 233 233 233 233 233 233 233 233 233 233 233 233 233 233 233 233 234 234 234 234 233 233 232
311 310 309 307 305 303 301 300 300 299 299 300 300 300 298 295 292 291 289 287 285 284 283 283 282 282 282 283 283 282 281 280 279 279 279 280 281 282 283 283 283 282 283 285 288 289 289 289 287 283 278 275 273 269 263 255 247 240 235 233 233 232 233 233 233 234 234 234 234 234 234 234 234 234 234 233 233 233 234 234 234 235 234 234 234
311 310 308 306 303 302 300 299 298 298 298 299 300 299 298 295 293 291 289 287 286 285 284 283 283 283 282 282 282 281 280 279 279 278 278 279 280 281 281 281 281 281 281 283 286 288 288 288 287 284 279 276 273 270 265 258 250 242 236 233 232 233 233 234 234 234 234 234 234 234 234 234 234 234 234 234 234 234 234 234 234 235 235 235 235
310 310 308 306 303 301 300 298 297 297 297 298 299 298 297 295 293 292 289 288 287 286 285 284 284 283 282 281 281 281 280 279 278 278 278 278 279 279 280 279 279 279 279 282 285 288 289 289 288 285 280 275 271 268 264 258 251 245 239 235 233 233 234 234 234 234 235 235 235 235 235 235 234 234 234 234 234 235 235 235 235 235 236 236 236
309 309 308 306 304 301 299 297 297 296 296 297 298 297 297 296 294 292 290 288 287 286 286 285 284 283 282 281 281 280 280 279 277 276 276 277 278 279 279 278 278 277 278 281 285 288 290 289 287 285 281 275 270 266 261 257 252 246 241 237 235 234 234 234 234 234 235 235 236 236 236 235 235 235 235 235 235 235 235 235 236 236 236 236 236
309 309 308 306 304 301 298 296 295 294 294 295 296 296 296 295 294 292 290 288 287 287 286 285 284 283 282 282 281 280 279 278 277 276 275 276 277 278 278 277 277 278 278 280 282 286 288 288 286 284 282 277 270 264 260 256 252 248 244 240 237 236 235 234 235 235 235 236 236 236 236 236 236 236 236 236 236 235 236 236 237 236 236 236 236
309 308 308 307 304 301 298 295 294 293 293 294 295 295 294 294 294 293 291 289 288 287 286 285 284 283 282 281 280 279 279 277 276 275 275 276 276 276 277 277 278 279 279 277 278 281 284 286 285 283 281 278 272 266 261 257 253 249 246 243 240 238 237 236 236 236 236 236 237 237 237 237 237 237 237 237 236 236 236 236 236 236 237 237 237
308 308 307 306 304 301 298 295 293 292 292 292 293 293 293 293 294 293 291 290 288 287 286 285 284 283 282 281 280 279 279 277 276 275 275 276 275 275 275 276 277 279 278 276 275 277 280 283 283 282 280 277 273 269 263 259 255 251 247 244 242 240 239 237 237 237 237 238 238 238 238 238 239 238 238 238 238 238 237 237 237 237 237 237 237
309 308 307 306 304 301 299 296 294 292 291 290 291 292 292 292 293 293 292 290 289 287 285 284 284 283 282 281 280 279 279 277 276 275 275 275 275 275 274 275 278 280 277 274 274 275 279 281 280 279 278 276 274 270 265 260 257 253 250 247 244 242 240 239 238 237 237 238 238 239 240 240 240 240 240 239 239 239 239 238 238 238 238 238 238
308 307 306 305 303 301 298 296 293 291 289 289 289 290 290 291 292 293 292 291 289 287 285 284 284 283 282 281 280 279 279 277 276 275 275 275 275 275 274 275 279 280 276 273 272 274 276 278 278 277 275 275 274 271 267 263 258 254 252 250 247 244 243 241 239 238 238 238 239 240 241 241 241 242 242 242 241 241 240 240 240 240 239 239 239
307 305 304 303 302 299 297 295 293 290 288 288 288 289 289 289 291 292 292 291 289 287 285 284 284 283 282 280 280 279 278 277 276 275 275 274 275 275 274 276 279 278 275 272 271 271 273 275 276 275 274 274 273 270 268 265 261 256 253 251 249 247 245 243 242 241 240 240 240 241 242 242 242 243 243 243 243 243 243 242 241 241 240 240 240
305 304 302 301 300 297 295 294 292 289 287 287 287 288 288 288 290 291 292 291 289 286 285 284 283 283 281 280 279 279 279 277 276 275 275 274 275 276 276 277 278 278 275 272 270 269 271 271 273 274 273 272 272 270 267 264 260 256 253 251 250 249 248 245 243 243 243 243 243 244 244 245 244 244 244 244 244 244 244 243 242 241 240 240 240
304 302 300 299 298 297 295 293 291 288 286 286 286 286 286 287 289 290 291 290 289 286 284 284 283 282 281 279 278 278 279 278 276 275 275 275 275 276 277 277 277 277 275 272 269 267 268 268 269 270 272 271 270 269 268 264 261 258 255 252 250 248 249 247 245 244 244 244 244 245 245 246 246 245 245 245 244 244 244 244 243 242 241 241 241
303 301 299 297 297 296 295 292 290 288 286 285 285 285 285 286 288 289 290 290 289 286 284 283 282 281 280 279 278 277 278 278 276 275 276 275 275 277 278 277 277 277 274 271 269 266 265 266 266 267 269 269 269 268 267 265 262 261 258 256 253 251 251 249 248 247 246 245 245 245 245 246 246 246 245 245 245 245 245 245 245 244 243 243 242
302 301 299 296 295 294 293 292 289 287 285 283 283 284 284 286 287 288 289 290 288 285 283 281 281 280 279 278 278 277 277 278 276 275 276 275 275 277 279 278 278 277 275 272 269 267 265 264 265 266 267 268 268 267 266 265 264 263 260 256 253 253 253 252 250 250 249 248 247 247 246 246 246 246 246 245 245 245 245 245 245 244 244 244 243
301 299 297 295 292 291 292 291 289 286 284 283 282 283 284 285 285 287 288 289 288 284 282 281 280 280 279 277 277 277 277 277 276 275 275 275 276 278 280 279 278 278 277 274 271 268 266 265 264 265 266 267 266 265 264 264 263 262 261 258 255 254 254 253 252 251 250 249 249 248 248 248 247 246 246 246 246 246 246 246 245 244 244 243 243
300 297 296 293 290 289 290 289 288 286 283 282 281 282 283 283 284 286 287 287 286 283 281 280 280 279 278 277 276 277 277 276 275 275 275 276 277 279 281 280 279 278 278 276 272 269 267 266 265 264 265 266 266 264 263 262 261 261 260 259 258 257 255 253 252 252 251 250 250 249 249 249 248 248 247 247 247 247 246 247 246 245 244 243 243
300 296 294 291 289 288 287 287 287 285 282 280 280 280 281 282 283 284 285 286 285 283 280 279 279 279 278 277 277 277 277 275 274 275 277 278 279 280 282 282 281 279 277 276 275 271 268 266 265 264 265 267 267 266 264 262 261 259 259 259 260 260 258 255 253 251 249 249 249 249 250 249 249 248 248 249 249 249 248 247 247 247 246 244 243
300 295 292 290 288 287 285 284 285 284 282 279 278 278 279 281 281 281 283 284 284 281 279 278 277 277 277 277 277 277 276 274 274 276 279 282 282 283 284 283 281 279 277 276 275 273 270 267 266 267 267 268 267 265 264 262 261 260 259 259 260 260 259 258 256 253 250 248 248 249 249 250 250 249 249 249 250 251 250 249 248 247 247 245 243
299 294 291 288 286 286 284 281 281 281 280 278 277 277 278 279 279 279 281 282 282 280 278 276 275 275 276 277 277 277 276 276 277 278 280 283 285 285 284 283 282 280 277 276 275 274 272 270 268 268 267 267 266 264 262 262 261 260 259 259 258 257 258 258 258 256 254 250 248 248 249 249 251 251 251 250 250 251 252 251 249 247 247 246 244
297 292 288 286 284 283 282 279 277 278 278 277 276 277 277 276 276 277 279 281 281 279 277 275 274 274 275 276 277 277 277 279 279 280 281 283 284 284 285 285 283 280 278 276 276 276 274 271 269 267 266 266 265 264 262 262 261 261 260 258 256 256 257 257 258 257 256 254 251 249 249 250 251 252 251 250 250 250 251 251 250 248 246 245 244
296 291 286 284 282 281 280 277 275 275 276 275 274 275 275 274 274 275 277 279 279 277 275 273 272 272 274 276 277 277 278 280 282 282 282 282 282 284 287 287 285 282 279 277 276 276 275 272 270 268 267 266 265 263 263 262 261 260 258 256 254 254 255 256 256 257 257 257 254 252 250 250 250 250 250 250 249 250 249 249 249 249 246 244 243
294 290 286 282 280 280 279 276 272 272 273 273 272 273 272 271 271 273 275 277 276 274 272 271 270 271 275 277 278 278 280 282 284 284 282 281 284 287 289 289 287 285 283 279 277 276 275 274 273 271 269 267 265 263 262 261 259 258 255 253 251 251 252 254 255 256 257 258 258 256 253 250 248 248 248 249 249 250 250 249 248 248 247 245 243
293 289 285 281 278 278 277 275 272 270 270 271 271 271 270 269 269 272 274 275 273 271 270 269 270 273 277 280 279 279 281 283 284 283 282 283 287 289 289 290 290 288 284 279 277 277 278 278 277 274 271 267 265 263 261 260 258 256 254 251 250 250 251 253 254 256 257 258 259 259 257 253 250 248 247 247 247 248 248 248 247 247 247 245 244
293 289 284 279 276 275 275 274 272 269 268 269 270 270 268 267 267 270 273 272 270 267 266 267 270 275 280 281 279 279 281 284 285 284 285 286 288 288 291 292 290 286 283 282 281 282 282 281 280 276 271 267 264 263 262 261 259 257 255 252 250 250 251 252 254 255 256 258 260 260 259 257 255 251 248 245 244 245 246 245 245 246 246 245 245
293 289 284 278 273 272 272 272 271 269 268 267 268 268 267 266 266 267 269 269 267 265 264 267 271 275 278 279 278 279 282 285 285 286 287 287 287 288 291 291 288 286 287 286 285 284 283 282 280 278 274 270 267 265 263 261 259 257 255 253 251 251 251 252 253 255 256 257 259 259 259 259 257 255 252 248 245 245 245 245 245 245 245 245 244
292 288 282 276 272 270 270 270 269 267 265 265 266 266 266 266 266 267 266 265 265 266 266 268 272 274 275 275 277 280 282 284 284 285 286 286 286 288 289 288 289 291 292 289 284 282 281 281 281 281 279 275 271 268 265 263 260 258 256 254 252 251 252 252 254 254 255 256 258 259 259 258 258 257 256 253 249 246 245 245 245 246 246 245 244
291 286 281 275 271 269 267 266 266 265 263 262 263 263 263 264 265 266 265 263 264 267 268 269 271 273 273 274 277 279 281 282 283 283 284 285 286 284 283 287 293 295 293 287 282 279 279 280 282 283 282 279 275 272 268 266 264 261 259 256 254 253 253 253 254 255 255 257 258 258 258 258 258 257 256 255 252 248 246 245 246 248 247 246 245
292 287 281 275 271 269 266 264 264 263 261 260 260 260 261 261 262 264 264 263 263 266 268 271 273 274 275 276 278 279 280 280 280 280 283 286 286 282 280 285 292 294 290 286 283 281 281 281 283 284 283 280 278 275 271 268 266 264 261 259 257 256 255 254 255 256 257 258 258 258 259 259 258 257 255 254 252 250 247 245 246 247 247 246 246
293 288 281 274 271 269 266 264 264 263 260 259 258 257 258 259 260 262 263 263 264 266 268 271 274 275 276 276 277 278 279 277 276 280 285 288 286 282 279 282 285 287 287 286 285 285 285 284 284 284 283 281 280 278 275 271 268 265 263 261 259 258 256 256 256 257 259 259 259 259 259 259 259 258 256 253 251 250 248 246 245 245 246 247 248
295 289 281 273 269 268 265 263 263 262 259 257 256 255 255 256 259 261 262 264 265 267 269 271 273 273 273 274 274 276 277 275 276 281 287 289 286 282 278 277 278 280 283 285 285 286 287 286 285 283 282 281 280 279 277 275 272 269 266 263 261 259 258 257 257 258 259 259 259 259 259 258 258 258 256 254 251 249 249 248 247 246 247 247 248
296 289 282 273 267 266 264 262 260 260 258 257 255 254 254 255 258 260 262 263 266 267 269 271 272 271 270 271 272 274 274 275 276 281 285 288 287 282 278 276 276 276 279 281 283 284 285 285 284 283 282 282 281 280 279 278 277 274 271 267 263 260 259 259 259 258 258 259 259 259 259 258 258 257 256 255 253 251 250 249 249 248 248 248 246
297 290 282 273 267 265 264 261 259 259 258 257 256 255 254 256 258 260 262 264 265 266 267 269 270 269 268 269 270 271 271 273 276 279 281 282 282 281 279 278 277 276 277 279 281 281 282 282 282 283 283 283 282 282 282 281 280 279 276 272 267 264 261 260 259 259 259 259 259 260 259 258 257 256 256 255 254 253 252 251 250 249 248 247 246
300 292 283 274 268 266 263 260 260 259 259 258 256 254 254 255 256 258 261 263 263 264 265 266 268 268 268 268 269 269 270 271 272 274 276 278 278 278 278 278 276 275 275 276 277 278 279 280 280 281 282 282 283 283 283 283 282 281 280 277 274 270 266 263 261 261 261 261 261 261 261 259 258 257 255 255 254 254 253 253 252 250 248 246 246
304 295 284 274 269 265 261 259 259 259 258 257 255 252 252 253 254 256 258 260 261 263 264 265 267 268 268 268 268 268 268 268 268 269 272 273 275 276 276 275 275 274 273 272 273 274 276 278 280 280 281 282 283 285 285 284 284 283 282 281 279 277 273 269 266 265 264 264 263 263 262 261 260 258 256 255 255 255 255 254 253 252 250 247 246
307 298 287 277 270 265 262 259 258 258 258 256 254 252 252 253 254 255 257 258 260 262 263 265 266 266 267 268 266 265 266 265 264 266 269 270 272 273 274 274 274 274 272 271 271 271 273 275 277 279 280 281 282 284 285 286 286 285 284 282 281 280 278 276 273 270 269 267 266 265 263 262 261 260 259 258 257 256 256 255 254 253 251 248 246
309 301 291 280 271 266 263 259 258 259 259 257 255 255 254 254 254 255 256 258 260 261 263 264 265 265 267 269 266 263 264 265 264 264 267 269 270 271 272 273 274 274 274 273 273 272 273 273 274 275 277 279 280 282 283 285 286 287 286 284 283 281 280 279 278 276 274 272 270 268 266 265 263 262 261 260 259 258 257 256 255 254 252 250 248
311 304 295 283 274 269 264 261 260 260 260 259 257 256 254 253 254 254 256 258 260 261 262 264 264 264 266 268 267 264 265 266 265 265 266 268 269 270 271 272 273 273 274 274 274 273 272 272 273 273 274 275 277 278 279 281 283 285 286 286 285 284 282 281 280 279 277 276 275 273 271 269 267 265 263 262 261 260 259 258 256 255 254 252 250
312 305 297 288 280 273 267 264 263 262 261 260 258 256 255 254 254 255 256 258 260 262 262 263 263 263 264 265 266 266 266 267 266 266 267 268 269 271 271 271 272 273 273 273 273 273 272 272 272 273 273 274 276 277 277 279 280 282 283 285 286 286 285 284 282 281 279 277 277 277 276 274 272 269 267 265 263 262 261 259 258 257 255 254 252
312 305 298 291 284 278 272 268 265 264 263 262 260 258 257 256 255 256 257 258 260 262 263 263 263 263 263 264 265 266 266 266 266 266 267 268 269 271 271 272 272 272 272 273 273 273 272 272 272 273 274 275 276 277 278 280 281 281 282 283 284 285 285 285 284 283 281 279 278 278 277 277 276 274 271 269 266 264 262 261 259 258 257 255 254
315 305 297 289 284 280 275 270 267 266 265 263 262 260 259 257 257 257 257 258 260 261 262 263 263 263 263 264 265 265 266 266 266 266 267 267 268 269 271 271 272 272 272 272 272 273 273 272 272 273 273 274 275 277 278 280 281 282 282 282 283 283 284 285 285 284 282 281 280 279 278 277 277 276 275 273 270 268 265 262 261 259 257 256 255
322 311 300 291 285 281 276 271 268 266 265 264 263 262 260 259 258 257 257 259 260 260 262 263 263 263 263 264 264 265 265 265 265 266 266 266 267 268 269 270 270 271 271 271 271 271 272 272 272 272 273 273 274 276 277 279 280 281 282 283 283 283 284 285 285 284 283 282 281 280 280 279 277 276 275 274 273 271 269 266 263 261 258 257 255
324 317 308 298 291 285 279 274 270 268 267 266 265 263 262 260 259 258 258 259 259 260 261 262 263 263 264 264 264 264 265 265 265 266 266 266 267 267 268 268 269 269 269 270 270 270 271 271 272 272 273 273 274 275 277 278 280 281 282 283 283 283 284 285 284 283 283 283 281 280 280 280 279 278 276 275 273 272 271 269 267 264 261 258 256
322 318 312 305 298 291 285 279 274 272 270 269 266 265 264 262 260 260 259 259 260 261 261 262 263 263 264 264 264 264 264 265 265 265 266 266 267 267 267 267 268 268 268 269 269 269 270 270 271 272 273 274 274 275 276 278 280 281 282 283 284 284 285 285 285 284 284 283 281 280 280 280 280 279 278 276 275 273 271 270 269 267 264 260 257
318 315 311 307 302 296 290 284 279 276 274 271 268 267 265 263 262 262 261 260 261 261 261 262 263 264 264 264 264 264 264 265 265 265 265 266 266 266 266 267 267 267 268 268 268 268 268 269 270 271 272 274 275 276 277 278 280 281 282 283 284 284 285 285 285 285 285 283 281 280 279 279 279 279 279 278 276 274 272 271 270 268 266 263 259
314 310 308 306 302 298 293 289 284 280 278 274 271 269 267 265 265 264 262 262 262 262 262 263 263 263 264 265 264 265 265 265 265 265 265 265 266 266 266 266 267 267 267 267 267 267 267 268 269 270 271 272 274 275 277 278 280 281 282 283 284 284 285 284 284 285 285 284 282 280 279 278 278 278 278 278 277 275 273 271 269 268 267 265 261